Location: Narrabri
(30.3170°S, 149.7830°E)
Time: 09:21:01
(UTC+10:00)

Tiangong 2 - Visible Passes

Search period start: 18 August 2017 00:00
Search period end: 28 August 2017 00:00
Orbit: 389 x 395 km, 42.8° (Epoch: 17 August)

Date Brightness Start Highest point End Pass type
(mag) Time Alt. Az. Time Alt. Az. Time Alt. Az.
19 Aug 3.9 18:07:01 10° SSW 18:07:26 10° S 18:07:51 10° S visible
21 Aug 4.1 19:26:36 10° SSW 19:26:46 11° SSW 19:26:46 11° SSW visible
22 Aug 3.6 18:30:02 10° SSW 18:31:19 12° SSE 18:32:32 10° SE visible
23 Aug 3.1 19:09:00 10° SSW 19:10:46 21° S 19:10:46 21° S visible
24 Aug 3.1 18:12:17 10° SSW 18:14:29 16° SSE 18:16:39 10° ESE visible
24 Aug 4.2 19:48:28 10° WSW 19:49:04 14° WSW 19:49:04 14° WSW visible
25 Aug 1.5 18:51:30 10° SW 18:54:39 45° SSE 18:55:05 41° SE visible
26 Aug 3.0 19:31:27 10° WSW 19:33:38 30° WNW 19:33:38 30° WNW visible
27 Aug 1.2 18:34:12 10° WSW 18:37:27 77° NW 18:39:56 16° NE visible
